CAPE
0 0 0 0 0 0 0 0 0 0 0 0 0 0 16 86 136 22 196 900 1083 1071 1269 1363 1598 1494 1191 906 930 1174 1854 1973 1649 1644 1204 1082 930 625 769 407 741 573 235 21 11 14 22 9 1
0 0 0 0 0 0 0 0 0 0 0 0 0 0 30 325 772 580 346 814 979 1135 1182 1237 1584 1522 1048 1030 1098 976 1398 2077 1829 1569 1681 1458 862 877 949 801 694 392 19 6 7 7 8 7 0
0 0 0 0 0 0 0 0 0 0 0 0 0 10 23 292 694 667 483 995 1102 1183 1135 1164 1532 1477 1152 1302 1415 1229 1222 2022 1790 1536 1703 1395 1115 1217 828 1174 915 625 280 79 6 1 0 0 0
0 0 0 0 0 0 0 0 0 0 0 0 0 49 32 28 439 748 720 1060 1103 959 948 1293 1479 1500 1392 1559 1384 1447 1192 1678 1800 1490 1324 1192 1243 996 835 1154 725 591 412 200 7 0 0 0 0
0 0 0 0 0 0 0 0 0 0 0 0 0 12 46 251 708 667 627 966 985 758 882 1183 1472 1547 1514 1488 1427 1633 1625 1346 1565 1357 1230 986 946 844 1003 843 406 511 375 6 0 0 0 0 0
0 0 0 0 0 0 0 0 0 0 0 0 0 0 35 72 703 657 617 713 957 889 840 1017 1254 1326 1408 1494 1359 1538 1367 1492 1197 1166 1320 1079 957 876 761 398 304 453 153 17 6 0 0 0 0
0 0 0 0 0 0 0 0 0 0 0 0 0 0 0 63 181 549 337 198 143 216 171 0 175 894 1035 1180 1066 1190 1198 1403 1130 978 979 732 601 527 204 27 387 487 313 356 81 34 16 5 0
0 0 0 0 0 0 0 0 0 0 0 0 0 0 0 57 562 227 134 30 0 0 0 0 0 0 0 512 552 643 705 915 764 529 403 232 20 11 14 15 109 382 475 391 246 72 57 39 17
0 0 0 0 0 0 0 0 0 0 0 0 0 0 12 277 222 137 68 29 2 0 0 0 0 0 0 0 220 308 524 652 340 231 36 0 0 3 5 7 19 125 255 221 64 34 30 14 0
0 0 0 0 0 0 0 0 0 0 0 0 0 0 99 319 202 158 101 63 1 0 1 0 0 0 0 0 0 8 180 158 138 7 0 0 0 1 5 12 16 66 107 77 53 22 3 0 0
0 0 0 0 0 0 0 0 0 0 0 0 0 0 0 10 184 124 79 41 0 0 0 1 1 1 0 0 0 0 29 26 7 0 0 0 0 3 12 12 14 17 11 1 13 3 0 0 0
0 0 0 0 0 0 0 0 0 0 0 0 0 0 0 0 0 60 93 71 0 2 0 0 0 0 0 0 0 0 41 4 1 0 0 0 0 2 4 6 9 5 0 0 0 0 0 0 0
0 0 0 0 0 0 0 0 0 0 0 0 0 0 0 0 0 0 100 78 0 9 0 0 0 0 0 0 0 6 34 22 0 0 0 0 0 0 0 0 0 0 0 0 0 0 0 0 0
0 0 0 0 0 0 0 0 0 0 0 0 0 0 0 0 0 0 105 74 93 25 4 0 8 0 0 0 0 2 22 50 3 0 0 0 0 0 0 0 0 0 0 0 0 0 0 0 0
4 0 0 0 0 0 0 0 0 0 0 0 0 0 0 0 0 0 4 56 123 76 20 4 30 33 28 18 58 9 0 5 23 1 0 0 0 0 0 0 0 0 0 0 0 0 0 0 0
0 0 0 0 0 0 0 0 0 0 0 0 0 0 0 0 0 0 39 176 156 129 63 13 93 184 30 35 6 17 11 1 13 0 0 0 0 0 0 0 0 0 0 0 0 0 0 0 0
0 0 0 0 0 0 0 0 0 0 0 0 0 0 0 0 3 0 93 96 140 80 53 61 87 14 80 31 0 67 72 12 0 0 0 0 0 0 0 0 0 0 0 0 0 0 0 0 0
0 0 0 0 0 7 0 0 0 0 0 0 0 0 0 27 1 11 255 210 200 92 71 55 34 0 66 25 0 128 90 189 120 19 0 0 0 0 31 22 24 0 0 0 0 0 0 0 0
0 0 0 0 0 13 0 0 0 0 0 0 0 0 1 21 119 85 308 271 206 122 38 12 90 2 7 13 14 83 94 84 119 213 142 93 46 37 74 112 88 41 39 26 8 0 0 0 0
0 12 0 0 0 5 0 0 0 0 0 0 0 2 0 81 160 312 294 233 200 116 65 44 43 30 55 10 66 43 27 53 91 112 241 268 140 157 150 147 128 125 101 61 45 3 5 1 0
5 10 0 0 0 0 0 0 0 0 0 0 0 0 1 11 171 277 268 179 170 111 100 86 91 102 84 18 30 13 28 108 127 162 93 136 218 270 278 233 211 179 151 137 99 49 44 105 26
4 0 5 18 4 3 1 0 0 0 0 0 0 0 0 1 226 129 124 83 87 80 84 56 40 53 68 63 51 29 28 74 54 70 144 220 242 304 320 285 246 208 141 124 107 85 62 81 66
0 0 0 0 47 2 0 9 10 5 0 0 0 0 49 303 103 140 53 53 58 62 54 47 46 73 37 41 31 22 18 31 53 87 78 72 77 99 145 128 128 150 83 10 35 0 0 1 2
3 3 0 0 10 5 14 20 3 7 5 0 0 10 233 164 40 55 43 11 5 12 28 23 3 10 27 41 20 9 50 52 56 77 66 50 38 55 119 119 107 108 88 34 3 0 0 0 0
4 10 0 0 1 3 8 4 0 5 2 0 71 114 95 63 35 19 6 3 2 3 1 1 8 2 11 15 36 43 53 48 33 33 42 33 12 13 53 81 87 25 9 4 2 0 0 0 0
3 18 4 0 2 4 6 1 1 6 28 8 7 3 1 0 0 0 10 0 1 0 0 0 0 0 0 7 52 55 42 50 42 27 27 40 49 13 1 4 18 2 0 0 1 0 0 0 0
7 13 5 3 10 1 4 1 4 0 1 0 4 0 2 1 0 0 0 0 0 0 0 0 0 0 0 0 11 35 78 105 55 41 26 11 0 12 2 1 1 0 6 2 1 0 0 0 0
1 0 1 3 0 3 6 2 0 2 7 1 2 1 0 0 0 0 0 0 0 0 0 0 0 0 0 0 0 0 53 52 94 55 34 11 0 0 5 3 4 12 3 2 0 0 0 0 0
0 0 0 0 0 0 0 2 8 18 3 0 0 0 0 0 0 0 0 0 0 0 0 0 0 0 0 0 0 0 0 0 0 0 13 14 2 1 1 3 1 1 1 1 0 0 0 0 0
0 0 0 0 0 0 0 6 16 9 1 0 0 0 0 0 0 0 0 0 0 0 0 0 0 0 0 0 0 0 0 0 0 0 0 0 0 0 0 0 0 0 0 0 0 0 0 0 0
CIN
0 0 0 0 0 0 0 0 0 0 0 0 0 0 -28 -143 -77 -49 -154 -99 -189 -193 -87 -39 -9 -33 -31 -33 -22 0 -1 0 0 0 0 0 -9 -39 -14 -62 -19 -49 -117 -183 0 -47 -39 0 0
0 0 0 0 0 0 0 0 0 0 0 0 0 0 -50 -73 -144 -147 -110 -110 -159 -123 -103 -63 -5 -4 -59 -23 -4 -2 -1 0 0 0 0 0 -13 -1 0 -16 -20 -84 -124 0 0 0 0 0 0
0 0 0 0 0 0 0 0 0 0 0 0 0 -47 -49 -107 -113 -148 -145 -101 -161 -100 -71 -38 -5 -3 -22 -6 0 0 0 0 0 0 0 0 -2 0 0 0 -1 -33 -107 -174 0 0 0 0 0
0 0 0 0 0 0 0 0 0 0 0 0 0 -22 -100 -169 -81 -141 -167 -111 -148 -106 -88 -11 -15 -1 -3 0 0 0 0 0 0 0 0 0 0 0 0 0 -2 -21 -68 -132 0 0 0 0 0
0 0 0 0 0 0 0 0 0 0 0 0 0 -36 -49 -161 -131 -142 -172 -127 -123 -120 -96 -14 -3 -1 0 -1 0 0 0 0 0 0 0 0 0 0 0 -3 -37 -28 -67 0 0 0 0 0 0
0 0 0 0 0 0 0 0 0 0 0 0 0 0 -31 -198 -158 -176 -177 -143 -85 -105 -69 -23 -8 -2 -1 -1 0 0 0 0 -1 0 0 0 -1 0 -4 -34 -57 -33 -121 -8 -6 0 0 0 0
0 0 0 0 0 0 0 0 0 0 0 0 0 0 0 -134 -237 -199 -253 -299 -257 -257 -230 0 -24 -12 -5 -4 -2 -1 -2 0 -1 -2 -1 -1 -18 -16 -64 -13 -46 -35 -75 -70 -52 -30 -59 -39 0
0 0 0 0 0 0 0 0 0 0 0 0 0 0 0 -86 -177 -311 -346 -363 0 0 0 0 0 0 0 -13 -9 -12 -8 -7 -7 -13 -10 -37 -209 -17 -2 -8 -152 -54 -38 -50 -89 -15 -32 -59 -94
0 0 0 0 0 0 0 0 0 0 0 0 0 0 -56 -166 -220 -280 -385 -373 -115 0 0 0 0 0 0 0 -35 -25 -17 -7 -20 -25 -99 0 0 -10 -10 -18 -26 -127 -74 -83 -15 -51 -80 -71 0
0 0 0 0 0 0 0 0 0 0 0 0 0 0 -72 -94 -141 -153 -229 -318 -117 0 0 0 0 0 0 0 0 -25 -46 -37 -20 -26 0 0 0 -8 -4 -16 -24 -173 -147 -55 -28 -83 -47 0 0
0 0 0 0 0 0 0 0 0 0 0 0 0 0 0 -4 -71 -133 -245 -272 -40 0 0 0 0 0 0 0 0 0 -12 -58 -82 -7 0 0 0 -28 -153 -105 -34 -38 -28 -5 -35 -14 0 0 0
0 0 0 0 0 0 0 0 0 0 0 0 0 0 0 0 -11 -95 -197 -288 -9 -232 0 0 0 0 0 0 0 0 -7 -29 -64 0 0 0 0 -28 -146 -19 -45 -56 0 0 0 0 0 0 0
0 0 0 0 0 0 0 0 0 0 0 0 0 0 0 0 0 0 -85 -151 0 -316 -40 0 0 0 0 0 0 -20 -2 -6 0 0 0 0 0 -16 -28 0 -6 0 0 0 0 0 0 0 0
0 0 0 0 0 0 0 0 0 0 0 0 0 0 0 0 0 0 -63 -93 -133 -261 -328 0 -261 0 0 -1 0 -12 -2 -38 -31 0 0 0 0 0 0 0 0 0 0 0 0 0 0 0 0
-2 0 0 0 0 0 0 0 0 0 0 0 0 0 0 0 0 0 -92 -71 -113 -145 -256 -245 -181 -157 -1 -4 -121 -52 -1 -21 -36 -52 0 0 0 0 0 0 0 0 0 0 0 0 0 0 0
0 0 0 0 0 0 0 0 0 0 0 0 0 0 0 0 0 0 -128 -64 -102 -99 -154 -154 -47 -24 -11 -45 -62 -27 -61 -5 -43 -28 0 0 0 0 0 0 0 0 0 0 0 0 0 0 0
0 0 0 0 0 0 0 0 0 0 0 0 0 0 0 0 -131 0 -143 -134 -125 -133 -99 -119 -46 -35 -55 -116 0 -5 -37 -55 0 0 0 0 0 0 0 0 0 0 0 0 0 0 0 0 0
0 0 0 0 0 -2 -1 0 0 0 0 0 0 0 0 -41 -91 -202 -105 -115 -96 -160 -127 -93 -20 0 -48 -103 -33 -10 -22 -106 -115 -89 0 0 0 0 -129 -100 -150 0 0 0 0 0 0 0 0
0 0 0 0 0 -3 0 0 0 0 0 0 0 0 -26 -67 -119 -162 -72 -68 -72 -80 -102 -89 -20 -25 -28 -72 -66 -30 -1 -26 -79 -77 -59 -50 -78 -101 -69 -58 -82 -160 -178 -199 -204 0 0 0 0
0 0 -1 0 0 -1 0 0 0 0 0 0 0 -58 0 -121 -129 -67 -87 -89 -74 -60 -70 -48 -28 -13 -8 -22 -11 -14 -5 -22 -29 -79 -31 -43 -34 -36 -35 -44 -74 -102 -116 -135 -157 -216 -210 -58 -18
-10 -2 0 0 0 0 0 0 0 0 0 0 0 0 -25 -99 -64 -85 -68 -73 -33 -21 -45 -2 -3 -2 -17 -33 -19 -34 -17 -14 -18 -32 -57 -78 -53 -43 -40 -45 -55 -82 -95 -94 -127 -190 -187 -117 -217
-2 0 -2 -1 0 0 0 -1 0 0 0 0 0 0 0 -65 -55 -87 -102 -100 -61 -21 -12 -31 -1 -3 -26 -46 -53 -45 -46 -15 -45 -86 -87 -105 -104 -73 -49 -54 -71 -91 -160 -151 -159 -150 -168 -139 -132
-1 0 0 0 0 0 0 0 0 0 0 0 0 0 -79 -24 -37 -43 -70 -84 -63 -56 -12 -12 -1 -2 -11 -27 -38 -62 -87 -71 -81 -86 -102 -114 -142 -134 -129 -127 -133 -117 -161 -201 -195 -29 -17 -202 -125
-10 -3 0 -1 -1 -1 0 0 0 0 0 0 -35 -19 -14 0 -43 -26 -40 -84 -69 -11 -12 -5 -22 -14 -2 -1 -5 -26 -73 -74 -89 -93 -75 -49 -119 -149 -113 -101 -111 -100 -118 -145 -123 -21 0 0 0
0 0 0 0 0 0 0 0 0 0 0 0 -1 0 -2 -3 -12 -48 -39 0 -9 -31 0 0 -34 -14 -40 -15 -18 -19 -39 -64 -72 -99 -53 -34 -58 -124 -92 -116 -91 -99 -129 -163 -161 0 0 0 0
0 0 0 0 0 0 0 0 0 0 0 -8 -17 -1 0 0 0 0 -10 0 0 0 0 0 0 0 0 -86 -28 -10 -22 -36 -65 -90 -69 -56 -65 -111 -109 -107 -68 -106 -16 -46 0 0 0 0 0
-1 0 -1 0 0 0 0 0 0 0 -1 -1 0 0 0 0 0 0 0 0 0 0 0 0 0 0 0 0 -102 -85 -36 -29 -52 -67 -87 -111 -141 -98 -139 -79 -4 -27 -113 -85 0 -13 0 0 0
0 0 0 0 0 0 0 0 0 0 0 0 0 0 0 0 0 0 0 0 0 0 0 0 0 0 0 0 0 0 -12 -59 -43 -63 -99 -128 0 0 -108 -36 -88 -79 -95 -88 0 0 0 0 0
0 0 0 0 0 -1 0 0 0 0 0 0 0 0 0 0 0 0 0 0 0 0 0 0 0 0 0 0 0 0 0 0 0 0 -96 -106 -44 -153 -47 -134 -19 -32 -29 0 0 0 0 0 0
0 0 0 0 0 0 0 0 0 -1 -4 0 0 0 0 0 0 0 0 0 0 0 0 0 0 0 0 0 0 0 0 0 0 0 0 0 0 0 0 0 0 0 0 0 0 0 0 0 0
Wind_Speed
8 9 1 4 3 3 5 8 9 12 5 5 8 5 3 2 3 4 2 6 14 16 13 13 16 16 14 11 12 11 9 15 14 15 17 16 17 18 18 16 16 17 17 18 17 16 16 15 14
6 6 4 0 4 2 7 7 11 10 10 11 9 5 2 3 4 6 5 10 16 14 13 13 15 14 14 12 12 12 11 16 15 16 16 17 17 17 16 16 16 19 18 17 16 15 14 13 10
6 3 3 4 4 8 5 5 14 13 10 6 7 1 2 3 5 6 5 13 16 12 11 12 18 15 13 12 11 13 11 15 16 16 17 17 16 17 19 16 16 18 16 14 15 14 13 12 10
0 5 3 1 7 9 12 11 16 9 14 8 2 2 2 3 4 8 10 15 16 13 9 12 18 17 13 12 10 13 11 15 16 16 16 17 16 17 18 15 18 17 16 14 15 14 13 12 10
3 3 2 4 9 8 7 9 13 14 8 12 5 5 4 3 14 13 11 12 14 8 9 10 15 15 14 12 10 11 13 14 15 17 18 18 18 16 15 15 17 17 16 15 14 13 12 11 9
3 2 2 8 10 8 8 14 8 9 7 12 9 1 6 5 13 10 12 11 13 12 10 9 11 12 11 12 9 10 13 14 15 18 18 18 18 17 15 16 16 16 16 14 13 12 12 10 7
3 1 4 5 6 9 8 8 8 11 8 12 4 6 6 3 6 9 11 11 10 12 13 8 5 8 8 8 6 8 12 13 15 17 18 18 18 16 17 16 17 17 15 14 12 11 11 9 6
2 1 3 4 7 11 8 7 4 6 14 9 5 4 7 2 4 12 13 12 14 9 11 9 9 10 9 2 3 5 12 12 14 15 16 14 15 13 18 16 15 17 13 13 11 10 9 8 6
3 2 2 5 7 9 8 11 13 5 5 10 2 5 4 7 7 6 9 6 8 6 6 8 8 5 5 9 4 2 9 10 12 12 12 12 9 10 12 10 13 16 14 12 11 11 9 7 6
4 4 6 6 4 6 12 10 12 12 16 9 19 6 9 5 3 8 7 8 7 8 4 4 9 3 4 5 7 6 3 6 8 9 10 7 9 8 10 7 13 16 16 11 10 9 8 7 2
5 4 3 9 14 14 14 14 7 10 16 7 9 13 10 5 9 7 7 7 7 6 6 7 7 5 7 4 3 3 3 3 6 11 9 8 6 5 6 4 4 5 9 4 5 4 3 4 3
6 7 9 9 11 13 16 11 14 14 12 11 10 11 7 5 5 9 5 9 9 9 9 10 10 11 10 5 3 6 7 5 6 7 10 8 4 5 6 5 5 5 4 5 5 3 5 5 6
9 7 9 11 12 12 15 17 18 21 18 12 14 15 9 5 5 6 6 3 6 7 9 8 8 9 11 13 6 7 9 6 8 7 7 9 8 7 6 4 4 4 4 5 5 5 4 5 6
4 11 15 13 15 14 17 18 13 10 9 17 16 15 9 9 5 4 3 6 6 6 8 8 8 9 9 10 11 10 9 10 8 9 8 8 10 8 7 7 7 6 5 5 5 5 5 5 4
10 10 10 10 11 10 13 18 25 13 10 16 17 17 9 8 8 7 6 6 7 5 9 9 6 11 10 11 11 7 11 11 11 11 14 15 12 12 11 9 8 7 6 6 5 5 3 3 3
5 2 4 3 3 8 8 20 17 7 11 15 16 16 13 9 9 7 7 6 7 6 7 8 5 8 10 6 12 6 7 9 10 9 9 14 12 10 10 8 7 5 5 4 4 3 3 3 3
4 3 4 10 3 7 7 14 11 14 10 14 14 13 13 8 9 9 9 9 9 10 9 7 2 9 9 10 12 7 9 7 8 7 7 11 9 7 7 6 5 6 4 4 3 3 3 3 3
1 4 7 12 5 12 20 22 17 10 10 12 6 11 9 9 11 10 10 10 9 10 10 9 5 6 6 10 12 6 10 3 4 6 6 8 6 7 6 5 6 5 4 4 3 4 3 4 4
6 7 14 17 17 13 12 19 17 8 6 7 6 10 9 9 11 8 10 12 9 9 8 12 10 8 7 7 9 6 8 6 2 3 9 9 8 8 6 4 5 6 7 6 6 4 5 4 3
13 15 19 18 9 4 11 13 11 8 7 6 8 11 10 5 8 3 8 6 6 9 9 8 11 11 9 9 9 6 6 4 6 2 6 6 11 9 7 6 5 6 5 6 6 5 3 3 3
13 12 10 13 7 12 12 10 7 4 6 7 9 7 6 6 6 3 3 9 7 6 8 9 12 9 5 7 6 7 10 7 8 8 4 5 8 8 9 8 6 6 5 5 5 5 6 4 1
12 8 9 8 2 3 3 6 2 3 7 5 9 8 6 7 5 3 5 4 4 7 6 6 5 8 5 5 5 5 4 5 1 3 4 4 6 7 7 7 6 5 4 4 4 4 4 4 4
7 9 11 13 8 2 6 6 0 7 6 7 8 7 6 4 8 5 3 3 2 10 9 10 8 7 6 8 5 5 5 4 3 4 5 3 3 4 4 5 5 5 3 1 3 3 1 1 5
7 9 12 6 3 5 0 3 1 4 6 7 3 7 10 8 6 4 2 4 7 14 12 11 10 9 6 5 5 4 5 5 4 4 5 1 1 3 3 2 4 4 2 2 4 5 5 4 0
6 2 3 4 4 2 2 0 2 12 14 9 7 9 7 8 7 5 9 11 4 15 11 11 10 8 7 4 2 3 4 4 4 3 3 5 4 3 4 4 4 3 4 5 3 3 3 5 6
5 2 3 4 4 2 4 6 6 17 7 12 16 10 15 13 11 10 7 6 10 12 10 7 8 9 4 4 1 4 4 2 2 6 6 4 4 3 4 4 4 5 5 5 6 4 4 3 4
2 4 5 4 5 2 3 0 7 18 14 19 13 15 13 11 10 7 5 6 9 9 7 6 4 1 4 5 4 5 2 10 10 8 6 6 5 6 7 8 9 9 9 10 10 7 7 6 5
7 5 1 2 4 4 4 5 5 11 12 14 14 13 11 9 9 7 6 9 9 7 6 8 7 7 6 6 5 3 3 3 6 7 8 9 6 6 7 8 9 10 10 12 10 8 8 8 5
2 4 4 2 3 2 2 4 5 10 11 13 10 11 12 8 9 8 9 9 9 8 9 8 9 9 8 7 6 4 5 5 5 4 2 3 2 3 5 6 7 8 10 10 11 11 9 10 7
3 6 2 4 3 4 4 5 3 8 8 13 10 11 11 11 8 8 9 9 9 9 9 9 7 7 6 5 5 6 6 6 5 5 4 2 0 1 3 3 4 4 6 6 9 9 9 10 10
Wind_Direction
325 301 219 9 78 88 239 238 236 276 307 225 264 318 241 141 132 188 133 92 129 144 151 155 152 146 148 152 148 150 163 155 158 152 152 151 145 142 144 137 132 120 117 112 112 108 101 104 105
319 314 44 22 125 177 258 190 269 260 254 277 304 321 281 100 99 114 100 146 138 147 151 154 150 146 149 155 157 157 173 159 160 158 154 153 149 147 145 143 134 123 121 118 115 113 113 112 111
316 300 78 149 184 205 240 196 221 258 299 315 301 92 328 56 118 125 149 135 135 142 155 158 149 149 154 157 165 164 175 160 159 163 157 154 152 145 149 138 127 121 117 121 121 120 120 118 115
119 2 348 203 224 238 247 294 289 295 305 305 10 211 112 197 129 149 138 129 131 148 151 163 151 149 155 153 166 163 174 166 163 163 160 157 153 148 145 134 123 120 120 124 123 122 120 118 115
7 92 233 227 243 268 270 260 266 290 295 299 352 273 208 115 136 141 135 134 133 125 133 156 153 150 154 151 166 170 170 174 167 166 160 158 153 147 141 128 126 123 120 125 127 126 123 118 117
352 131 208 229 247 267 259 269 268 265 262 285 329 218 264 165 137 152 136 132 136 129 136 153 154 152 155 151 161 176 178 176 176 171 162 159 148 149 155 149 123 125 132 135 134 131 126 121 117
131 42 228 232 262 267 254 282 283 289 307 291 230 302 293 185 63 64 71 77 81 96 91 53 16 147 147 135 152 183 180 177 175 171 161 157 154 160 156 147 147 137 143 143 138 137 133 128 122
123 148 234 233 239 273 277 305 312 326 299 291 30 297 290 299 76 95 94 90 88 90 99 99 54 50 19 98 159 193 178 166 167 168 163 160 154 156 160 165 150 134 136 134 136 144 142 138 137
54 271 215 227 229 254 301 300 309 310 252 302 295 294 258 134 118 92 88 80 92 94 109 110 88 48 41 15 28 13 167 166 155 145 150 152 149 157 155 160 148 138 136 135 146 150 146 147 159
166 208 196 241 297 320 313 312 316 321 308 306 315 340 24 337 169 155 155 156 148 143 149 146 120 102 64 2 16 347 158 160 153 150 160 153 146 154 162 151 147 147 142 145 158 160 163 167 184
226 220 256 288 298 291 287 294 290 294 290 284 289 315 339 254 261 189 173 165 168 136 150 162 150 157 104 24 326 329 281 170 156 153 154 147 149 139 139 140 140 133 133 141 156 175 191 194 200
275 254 262 270 267 281 282 289 280 278 267 283 301 297 321 345 2 295 220 170 165 155 155 167 176 170 138 157 239 277 217 200 168 168 161 158 140 149 160 164 150 141 136 159 181 199 212 207 218
269 272 273 280 280 273 268 258 262 266 282 285 293 291 299 301 305 299 247 60 132 174 158 174 179 181 167 183 198 255 211 207 178 160 181 170 158 159 154 165 147 159 167 181 193 203 207 222 218
291 305 289 280 277 282 275 275 246 247 262 276 276 279 279 278 271 291 268 187 202 174 161 161 194 192 182 207 167 242 202 181 186 184 203 169 163 162 168 171 179 188 189 199 191 200 201 205 185
284 291 277 250 255 258 273 272 250 255 236 259 270 276 279 260 297 281 252 217 182 188 159 187 215 196 191 201 159 207 197 186 186 184 183 172 171 173 170 174 181 195 188 189 191 210 191 194 215
243 255 325 207 269 248 182 271 263 257 230 248 263 265 265 246 248 274 240 201 162 157 162 193 243 182 203 109 153 173 214 177 183 185 169 163 176 169 167 170 174 174 166 171 171 169 199 195 192
270 288 300 311 235 257 267 277 311 238 228 247 255 263 254 241 256 251 215 181 163 151 168 184 187 205 137 126 84 221 236 158 165 155 149 157 158 165 145 152 154 156 158 167 179 190 170 180 210
248 310 277 277 312 292 274 263 268 241 223 241 293 291 260 246 239 238 183 168 166 167 171 169 185 228 183 149 136 207 240 187 143 165 150 154 150 149 138 152 156 159 162 187 183 182 196 172 198
270 282 285 287 282 294 268 271 269 224 214 250 260 250 232 247 266 242 196 181 150 178 176 190 180 205 173 154 146 166 201 212 277 169 161 161 148 152 151 162 170 176 178 185 189 181 187 213 175
265 274 274 280 259 275 281 272 264 207 217 226 227 229 225 249 282 236 179 145 165 181 184 192 177 193 188 167 166 164 182 203 220 203 189 159 162 161 167 173 182 180 175 185 193 182 174 194 172
259 246 257 265 295 267 259 279 238 228 197 234 275 255 214 235 231 104 140 173 143 189 165 178 177 169 187 124 147 144 195 181 182 191 200 185 165 175 180 177 172 178 172 178 186 188 184 166 121
268 239 267 296 264 272 71 283 0 320 297 228 242 247 229 265 145 153 83 115 184 177 169 154 143 146 160 112 103 116 135 152 159 196 172 139 142 171 166 170 168 170 194 188 198 196 187 144 158
261 331 305 284 258 278 223 244 174 327 295 270 249 203 199 154 150 126 123 184 328 160 168 159 125 124 99 94 85 90 105 123 125 87 100 121 127 154 171 187 183 167 194 220 229 195 201 214 174
308 291 275 239 233 243 268 201 259 316 289 285 169 153 136 155 133 130 85 352 20 125 118 122 100 78 86 93 127 132 98 114 101 74 75 51 338 77 107 124 77 148 161 185 219 203 179 212 7
221 280 315 245 191 358 305 312 277 303 297 254 147 137 123 106 123 138 43 41 328 95 78 80 77 67 39 23 121 168 160 143 145 126 154 199 205 201 197 165 172 201 202 199 199 218 209 218 185
314 315 269 306 359 46 26 354 328 305 82 97 90 92 71 53 41 41 32 29 42 67 57 59 54 50 10 347 286 189 200 157 195 199 209 227 195 173 178 202 203 210 204 179 209 210 205 211 252
105 227 178 254 215 158 354 181 291 356 46 63 67 72 66 61 63 57 43 67 54 47 43 39 43 195 232 253 303 318 193 213 220 227 216 220 202 202 195 200 209 204 208 204 205 201 199 196 210
219 335 341 250 9 64 12 21 23 359 52 71 61 75 71 58 75 60 70 75 86 81 73 74 80 77 73 69 59 38 92 174 224 220 223 225 220 204 210 213 217 223 214 207 203 195 196 202 207
241 289 242 247 138 119 73 31 0 48 60 78 61 82 89 61 78 62 74 70 72 71 64 57 49 48 49 54 56 49 47 45 40 32 307 177 208 229 216 213 215 215 211 209 204 207 185 197 193
260 265 273 105 23 51 90 57 335 80 59 89 75 66 80 99 74 75 67 65 65 61 60 62 59 58 50 58 62 45 43 40 44 43 26 12 215 223 204 205 213 214 223 213 211 197 190 193 196